[[{"header":{"parameterUnit":"m.s-1","parameterCategory":1,"la1":30.2991,"la2":30.254,"lo1":-89.0895,"lo2":-89.0444,"dy":0.0017,"dx":0.0017,"nx":28,"ny":28,"refTime":"2025-01-22T09:00:00:Z","depth":0,"parameterNumber":2,"parameterNumberName":"U-component_of_WINDS"},"data":[0,0,0,0,0,0,0,0,0,0,0,0,0,0,0,0,0,0,0,0,0,0,0,0,0,0,0,0,0,0,0,0,0,0,0,0,0,0,0,0,0,0,0,0,0,0,0,0,0,0,0,0,0,0,0,0,0,0,-1.8922,-1.8922,0,-1.8918,-1.8918,-1.8918,-1.8855,-1.8854,-1.8852,-1.885,-1.885,-1.8851,-1.8853,0,0,0,0,0,0,0,0,0,0,0,0,0,-1.8878,-1.888,-1.8922,-1.8922,-1.8922,-1.8918,-1.8918,-1.8918,-1.8855,-1.8853,-1.8852,-1.885,-1.885,-1.8851,-1.8853,0,0,0,0,0,0,0,0,0,0,0,0,0,-1.8888,-1.888,-1.8922,-1.889,-1.8887,-1.8918,-1.8918,-1.8918,-1.8856,-1.8853,-1.8851,-1.8849,-1.8849,-1.8851,-1.8853,-1.8916,0,0,-1.886,-1.8861,0,0,0,0,0,0,0,0,-1.8888,-1.889,-1.8895,-1.8893,-1.8889,-1.8885,-1.8903,-1.8918,-1.8856,-1.8868,-1.885,-1.8848,-1.8864,-1.8865,-1.8869,-1.8916,-1.8916,-1.886,-1.8862,-1.8863,-1.8863,0,0,0,0,0,0,0,-1.8887,-1.889,-1.8921,-1.8895,-1.8892,-1.8877,-1.8876,-1.8905,-1.888,-1.8867,-1.8862,-1.8862,-1.8862,-1.8867,-1.8869,-1.8916,-1.886,-1.8862,-1.8864,-1.8865,-1.9014,-1.9017,0,0,0,0,0,0,-1.8891,-1.889,-1.8921,-1.8921,-1.8882,-1.888,-1.8878,-1.8889,-1.8879,-1.8875,-1.8864,-1.8859,-1.8865,-1.8866,-1.8869,-1.8942,-1.8863,-1.8865,-1.8866,-1.9012,-1.9015,-1.9018,0,0,0,0,0,0,-1.889,-1.8894,-1.8921,-1.8904,-1.8906,-1.8883,-1.8895,-1.889,-1.8895,-1.8877,-1.8873,-1.8875,-1.8863,-1.8865,-1.8905,-1.8941,-1.8866,-1.8868,-1.9009,-1.9013,-1.9016,-1.909,0,0,0,0,0,0,-1.8889,-1.8894,-1.8917,-1.8905,-1.8907,-1.8956,-1.8897,-1.8892,-1.8899,-1.8892,-1.8886,-1.8882,-1.8861,-1.8902,-1.8907,-1.8943,-1.887,-1.9005,-1.9011,-1.9015,-1.9084,-1.9096,-1.9106,0,0,0,0,0,-1.8888,-1.8938,-1.8918,-1.8922,-1.8935,-1.8959,-1.896,-1.8934,-1.8902,-1.8926,-1.8914,-1.8883,-1.8936,-1.8906,-1.8911,-1.8949,-1.9003,-1.9009,-1.9015,-1.9079,-1.9093,-1.9105,0,0,0,0,0,0,-1.8956,-1.8936,-1.8914,-1.8962,-1.8962,-1.8948,-1.8977,-1.895,-1.896,-1.8954,-1.8921,-1.892,-1.8965,-1.896,-1.8927,-1.9009,-1.8964,-1.8971,-1.9011,-1.9024,-1.9035,-1.9036,-1.8871,0,0,0,0,0,-1.8977,-1.8996,-1.8978,-1.9022,-1.9023,-1.9,-1.9009,-1.8989,-1.8988,-1.8989,-1.898,-1.8982,-1.8999,-1.9011,-1.9026,-1.9082,-1.9081,-1.9111,-1.9122,-1.9131,-1.9138,-1.9169,-1.9183,-1.9037,-1.9037,-1.9037,0,0,-1.902,-1.9011,-1.9026,-1.9036,-1.9034,-1.9056,-1.9001,-1.9026,-1.9043,-1.8993,-1.9029,-1.9023,-1.9023,-1.9071,-1.9092,-1.9069,-1.9177,-1.9138,-1.9145,-1.9148,-1.9176,-1.919,-1.9203,-1.9041,-1.9041,-1.904,0,0,-1.911,-1.9105,-1.9142,-1.914,-1.9138,-1.9122,-1.9131,-1.912,-1.9114,-1.9149,-1.9112,-1.9132,-1.9162,-1.9164,-1.9169,-1.926,-1.9232,-1.9265,-1.9323,-1.9354,-1.9365,-1.9375,-1.9409,-1.9422,-1.9272,-1.9272,-1.9272,0,-1.9165,-1.9196,-1.9164,-1.9193,-1.9199,-1.9153,-1.9191,-1.9191,-1.9194,-1.92,-1.9173,-1.921,-1.9207,-1.9256,-1.9278,-1.9283,-1.9293,-1.9267,-1.9366,-1.9375,-1.9384,-1.9417,-1.9429,-1.9277,-1.9276,-1.9276,-1.9275,0,-1.9264,-1.9286,-1.9316,-1.9319,-1.9328,-1.9361,-1.9336,-1.9349,-1.9327,-1.9315,-1.9353,-1.9347,-1.936,-1.9369,-1.9349,-1.9416,-1.9402,-1.9371,-1.9325,-1.9403,-1.9433,-1.9445,-1.9283,-1.9281,-1.928,-1.9279,0,0,-1.9399,-1.9383,-1.9395,-1.9396,-1.9389,-1.9407,-1.9438,-1.9449,-1.9462,-1.9465,-1.9492,-1.9518,-1.949,-1.9495,-1.9475,-1.9501,-1.9575,-1.9467,-1.9467,-1.9489,-1.9651,-1.9676,-1.969,-1.9556,-1.9558,-1.956,-1.9651,0,-1.9487,-1.9539,-1.9512,-1.9568,-1.9589,-1.9545,-1.9572,-1.9572,-1.9561,-1.9578,-1.9565,-1.9585,-1.9545,-1.9548,-1.9572,-1.9561,-1.9608,-1.9554,-1.9582,-1.9584,-1.9586,-1.9706,-1.9732,-1.9819,-1.9663,-1.9665,-1.9666,0,-1.9598,-1.9605,-1.9663,-1.9653,-1.9661,-1.9686,-1.9695,-1.9711,-1.971,-1.97,-1.9706,-1.9679,-1.971,-1.9663,-1.9707,-1.9671,-1.968,-1.9677,-1.9679,-1.9683,-1.9631,-1.9714,-1.9845,-1.9859,-1.9684,-1.9682,-1.9681,0,-1.9693,-1.9717,-1.9755,-1.9757,-1.9746,-1.9765,-1.9761,-1.9757,-1.9766,-1.9774,-1.978,-1.9792,-1.9799,-1.981,-1.9787,-1.9755,-1.9835,-1.9785,-1.9829,-1.983,-1.985,-1.9849,-1.9986,-1.9853,-1.9852,-1.9852,-1.9852,0,-1.9796,-1.9834,-1.9798,-1.9822,-1.9863,-1.9831,-1.9873,-1.9865,-1.9862,-1.9884,-1.9846,-1.9868,-1.9836,-1.9855,-1.9838,-1.9878,-1.9881,-1.9875,-1.987,-1.9879,-1.988,-1.9887,-1.9881,-1.9855,-1.9855,-1.9854,-1.9853,0,-1.991,-1.9887,-1.9926,-1.9912,-1.9909,-1.9941,-1.9929,-1.9951,-1.9936,-1.9965,-1.997,-1.9948,-1.9969,-1.9947,-1.9966,-1.9954,-2.0008,-1.9993,-2.0009,-2.0005,-2.0051,-2.0048,-2.0199,-2.0218,-2.007,-2.0072,-2.0073,0,-1.9979,-2.0007,-1.9995,-2.0007,-2.0005,-2.0024,-2.0033,-2.0003,-2.0014,-2.0015,-2.0037,-2.0054,-2.0067,-2.0102,-2.0088,-2.0103,-2.009,-2.0142,-2.0092,-2.0101,-2.0093,-2.0093,-2.0096,-2.0153,-2.0155,-2.0156,-2.0157,0,-2.0103,-2.0091,-2.0104,-2.0114,-2.0126,-2.0132,-2.0136,-2.0148,-2.0117,-2.0131,-2.0151,-2.0161,-2.018,-2.0198,-2.0209,-2.0206,-2.0178,-2.0172,-2.0184,-2.0195,-2.0203,-2.0201,-2.0039,-2.017,-2.0169,-2.0168,-2.0167,-2.0166,-2.0198,-2.0221,-2.0217,-2.0234,-2.0233,-2.0238,-2.0258,-2.0246,-2.0261,-2.0274,-2.0255,-2.0281,-2.0279,-2.0291,-2.0291,-2.0312,-2.029,-2.0306,-2.031,-2.0315,-2.0323,-2.0198,-2.0313,-2.0313,-2.0312,-2.0312,-2.0312,0,-2.0323,-2.0317,-2.0333,-2.0339,-2.0353,-2.0322,-2.0325,-2.0339,-2.0361,-2.0362,-2.0374,-2.0398,-2.0415,-2.0403,-2.0418,-2.0437,-2.0424,-2.0442,-2.0442,-2.0442,-2.034,-2.033,-2.0452,-2.0452,-2.0452,-2.0452,-2.0452,-2.0452,-2.0389,-2.0427,-2.0414,-2.0452,-2.0446,-2.047,-2.0475,-2.0479,-2.0479,-2.0507,-2.0521,-2.0512,-2.0508,-2.0522,-2.0537,-2.0533,-2.0542,-2.0565,-2.0556,-2.0462,-2.0449,-2.0436,-2.0426,-2.0566,-2.0566,-2.0656,-2.0657,-2.0658]},{"header":{"parameterUnit":"m.s-1","parameterCategory":1,"la1":30.2991,"la2":30.254,"lo1":-89.0895,"lo2":-89.0444,"dy":0.0017,"dx":0.0017,"nx":28,"ny":28,"refTime":"2025-01-22T09:00:00:Z","depth":0,"parameterNumber":3,"parameterNumberName":"V-component_of_WINDS"},"data":[0,0,0,0,0,0,0,0,0,0,0,0,0,0,0,0,0,0,0,0,0,0,0,0,0,0,0,0,0,0,0,0,0,0,0,0,0,0,0,0,0,0,0,0,0,0,0,0,0,0,0,0,0,0,0,0,0,0,-2.265,-2.2651,0,-2.2689,-2.269,-2.269,-2.267,-2.2669,-2.2668,-2.2667,-2.2705,-2.2707,-2.2709,0,0,0,0,0,0,0,0,0,0,0,0,0,-2.2556,-2.2558,-2.265,-2.2651,-2.2651,-2.2689,-2.269,-2.269,-2.267,-2.2669,-2.2668,-2.2667,-2.2704,-2.2707,-2.2709,0,0,0,0,0,0,0,0,0,0,0,0,0,-2.2596,-2.2559,-2.265,-2.2646,-2.2646,-2.2689,-2.269,-2.2691,-2.2671,-2.2669,-2.2668,-2.2666,-2.2704,-2.2707,-2.2709,-2.2758,0,0,-2.2718,-2.272,0,0,0,0,0,0,0,0,-2.2594,-2.26,-2.2646,-2.2646,-2.2647,-2.2673,-2.267,-2.2713,-2.2671,-2.2661,-2.2667,-2.2665,-2.2696,-2.2699,-2.271,-2.276,-2.2762,-2.2719,-2.2721,-2.2722,-2.2723,0,0,0,0,0,0,0,-2.2591,-2.2598,-2.2666,-2.2647,-2.2647,-2.2641,-2.2645,-2.2679,-2.2687,-2.2662,-2.2661,-2.2666,-2.2695,-2.2707,-2.2711,-2.2762,-2.2719,-2.2721,-2.2723,-2.2724,-2.2855,-2.2857,0,0,0,0,0,0,-2.2589,-2.2596,-2.2665,-2.2667,-2.2616,-2.2644,-2.2649,-2.2666,-2.2686,-2.2688,-2.2667,-2.2665,-2.2703,-2.2707,-2.2712,-2.2771,-2.2722,-2.2725,-2.2726,-2.2853,-2.2855,-2.2857,0,0,0,0,0,0,-2.2587,-2.2595,-2.2663,-2.2631,-2.2639,-2.2648,-2.2667,-2.2668,-2.268,-2.269,-2.2691,-2.2678,-2.2702,-2.2708,-2.2747,-2.2772,-2.2726,-2.2729,-2.2851,-2.2854,-2.2856,-2.289,0,0,0,0,0,0,-2.2584,-2.2595,-2.2614,-2.2632,-2.2641,-2.2699,-2.2669,-2.267,-2.2685,-2.2682,-2.27,-2.2702,-2.2701,-2.2743,-2.275,-2.2775,-2.2731,-2.2849,-2.2852,-2.2855,-2.2886,-2.2893,-2.2899,0,0,0,0,0,-2.2581,-2.2621,-2.2615,-2.2624,-2.2666,-2.27,-2.2705,-2.2704,-2.2687,-2.2706,-2.2713,-2.2701,-2.2768,-2.2747,-2.2755,-2.2781,-2.2847,-2.2851,-2.2855,-2.2884,-2.2892,-2.2898,0,0,0,0,0,0,-2.2606,-2.2624,-2.2617,-2.2664,-2.2681,-2.2697,-2.2721,-2.2713,-2.2734,-2.2731,-2.2728,-2.2732,-2.2773,-2.2781,-2.2758,-2.283,-2.2805,-2.281,-2.2824,-2.2832,-2.2838,-2.2835,-2.2733,0,0,0,0,0,-2.2617,-2.2644,-2.2658,-2.2698,-2.2707,-2.2713,-2.2727,-2.2725,-2.2742,-2.2749,-2.2758,-2.2775,-2.2799,-2.2815,-2.2839,-2.2887,-2.289,-2.2909,-2.2915,-2.292,-2.2925,-2.2951,-2.296,-2.287,-2.287,-2.287,0,0,-2.264,-2.2653,-2.267,-2.2703,-2.2716,-2.2744,-2.2719,-2.2749,-2.277,-2.2753,-2.2792,-2.2799,-2.2817,-2.2861,-2.2881,-2.2869,-2.2951,-2.2925,-2.2929,-2.2931,-2.2956,-2.2965,-2.2972,-2.2872,-2.2872,-2.2871,0,0,-2.2696,-2.2708,-2.2744,-2.2757,-2.2777,-2.278,-2.2789,-2.2806,-2.281,-2.2849,-2.2837,-2.2861,-2.2903,-2.2917,-2.2929,-2.299,-2.298,-2.2997,-2.303,-2.3056,-2.3063,-2.3069,-2.3092,-2.31,-2.3002,-2.3002,-2.3002,0,-2.2722,-2.2764,-2.2763,-2.2795,-2.281,-2.2797,-2.2832,-2.2845,-2.2871,-2.2881,-2.2867,-2.292,-2.2931,-2.2978,-2.2993,-2.3003,-2.3013,-2.2996,-2.3062,-2.3068,-2.3074,-2.3096,-2.3104,-2.3004,-2.3004,-2.3004,-2.3004,0,-2.2795,-2.2825,-2.2851,-2.2878,-2.2895,-2.2929,-2.2931,-2.2949,-2.2945,-2.295,-2.2989,-2.3002,-2.3027,-2.3038,-2.3034,-2.3085,-2.3077,-2.3062,-2.3038,-2.3085,-2.3105,-2.3113,-2.3007,-2.3007,-2.3006,-2.3006,0,0,-2.2869,-2.2895,-2.2904,-2.2916,-2.2937,-2.2959,-2.2992,-2.3018,-2.3033,-2.3051,-2.3078,-2.3114,-2.3101,-2.3115,-2.3112,-2.3135,-2.3183,-2.3118,-2.3118,-2.313,-2.324,-2.3252,-2.3262,-2.3176,-2.3178,-2.3179,-2.3239,0,-2.2928,-2.2986,-2.2985,-2.3039,-2.3066,-2.3054,-2.3082,-2.3097,-2.3102,-2.3125,-2.313,-2.3156,-2.3137,-2.3145,-2.3167,-2.3173,-2.3205,-2.3168,-2.3201,-2.3203,-2.3199,-2.3272,-2.3284,-2.3341,-2.3247,-2.3248,-2.3249,0,-2.3004,-2.3026,-2.3083,-2.31,-2.3111,-2.3137,-2.316,-2.3183,-2.3199,-2.3201,-2.3217,-2.3211,-2.3243,-2.3216,-2.326,-2.3235,-2.3248,-2.3253,-2.3255,-2.3259,-2.323,-2.3279,-2.3359,-2.3368,-2.3261,-2.3261,-2.326,0,-2.3054,-2.3097,-2.3137,-2.3147,-2.3168,-2.3186,-2.3195,-2.321,-2.3226,-2.3246,-2.3256,-2.3279,-2.3293,-2.331,-2.331,-2.3291,-2.3355,-2.3328,-2.3358,-2.3358,-2.3373,-2.3372,-2.3457,-2.338,-2.338,-2.3379,-2.3379,0,-2.312,-2.3155,-2.3159,-2.3184,-2.3223,-2.3221,-2.3259,-2.3266,-2.328,-2.3305,-2.3295,-2.3319,-2.3317,-2.334,-2.334,-2.3377,-2.3383,-2.3385,-2.3385,-2.3387,-2.3387,-2.3396,-2.3393,-2.3382,-2.3381,-2.3381,-2.338,0,-2.3183,-2.3187,-2.3229,-2.3245,-2.325,-2.3278,-2.3291,-2.3314,-2.3318,-2.335,-2.3357,-2.3363,-2.339,-2.3392,-2.3422,-2.3422,-2.3468,-2.3462,-2.3463,-2.3462,-2.3492,-2.349,-2.3587,-2.36,-2.3513,-2.3514,-2.3514,0,-2.3225,-2.3252,-2.3272,-2.3288,-2.3299,-2.3326,-2.3342,-2.334,-2.3357,-2.3379,-2.3399,-2.3425,-2.3447,-2.349,-2.3497,-2.3521,-2.3516,-2.3549,-2.352,-2.3521,-2.3518,-2.3517,-2.352,-2.3555,-2.3556,-2.3557,-2.3557,0,-2.3301,-2.3302,-2.3326,-2.3351,-2.3371,-2.339,-2.3408,-2.3422,-2.3423,-2.3442,-2.3471,-2.3487,-2.3519,-2.3546,-2.3569,-2.3577,-2.3568,-2.3566,-2.3575,-2.3578,-2.3577,-2.3579,-2.3479,-2.3564,-2.3564,-2.3563,-2.3563,-2.3563,-2.3356,-2.3379,-2.3397,-2.3424,-2.3438,-2.3455,-2.3477,-2.3484,-2.3508,-2.3535,-2.3532,-2.3564,-2.3579,-2.3609,-2.3619,-2.3643,-2.3632,-2.3644,-2.3647,-2.365,-2.3654,-2.3572,-2.3647,-2.3647,-2.3647,-2.3647,-2.3647,0,-2.3432,-2.3442,-2.3467,-2.3494,-2.3515,-2.3504,-2.3524,-2.3542,-2.357,-2.3586,-2.3607,-2.364,-2.3665,-2.3673,-2.3698,-2.3716,-2.3712,-2.3722,-2.3721,-2.3724,-2.3662,-2.3653,-2.3725,-2.3725,-2.3725,-2.3725,-2.3725,-2.3725,-2.3474,-2.3514,-2.3516,-2.3563,-2.3572,-2.3604,-2.3616,-2.3632,-2.3644,-2.3681,-2.3703,-2.3708,-2.3721,-2.3746,-2.3769,-2.3771,-2.3781,-2.3793,-2.3793,-2.3736,-2.3728,-2.372,-2.3712,-2.3795,-2.3795,-2.3853,-2.3853,-2.3853]}]]